Weather History for KGAO - April, 2014

Change the Weather History Date:

Sunday, April 20, 2014

  Actual Average Record
Temperature  
Mean Temperature 66 °F -  
Max Temperature 79 °F - - ()
Min Temperature 52 °F - - ()
Growing Degree Days 16 (Base 50)    
Moisture  
Dew Point 59 °F    
Average Humidity 76    
Maximum Humidity 95    
Minimum Humidity 42    
Precipitation  
Precipitation 0.00 in - - ()
Sea Level Pressure  
Sea Level Pressure 30.14 in    
Wind  
Wind Speed 2 mph (East)    
Max Wind Speed 10 mph    
Max Gust Speed 17 mph    
Visibility 9 miles    
Events      
T = Trace of Precipitation, MM = Missing Value Source: NWS Daily Summary

Daily Weather History Graph

Daily Weather History Graph

Search for Another Location

Airport or City:

Trip Planner

Search our weather history database for the weather conditions in past years. The results will help you decide how hot, cold, wet, or windy it might be!

Date:

Astronomy

Apr. 20, 2014 Rise Set
Actual Time 6:29 AM CDT 7:30 PM CDT
Civil Twilight 6:04 AM CDT 7:55 PM CDT
Nautical Twilight 5:35 AM CDT 8:24 PM CDT
Astronomical Twilight 5:05 AM CDT 8:54 PM CDT
Moon 12:01 AM CDT (4/20) 10:58 AM CDT (4/20)
Length of Visible Light 13h 50m
Length of Day
13h 01m
Waning Gibbous, 68% of the Moon is Illuminated
Apr 20
Waning Gibbous
Apr 22
Last Quarter
Apr 29
New
May 6
First Quarter
May 14
Full

Hourly Weather History & Observations

Time (CDT) Temp. Dew Point Humidity Pressure Visibility Wind Dir Wind Speed Gust Speed Precip Events Conditions
12:15 AM 59.9 °F 57.6 °F 92% 30.11 in 3.0 mi Calm Calm - N/A   Clear
12:35 AM 59.9 °F 57.6 °F 92% 30.11 in 7.0 mi Calm Calm - N/A   Clear
12:55 AM 59.2 °F 57.2 °F 93% 30.11 in 7.0 mi Calm Calm - N/A   Clear
1:15 AM 59.0 °F 57.2 °F 94% 30.11 in 10.0 mi WSW 3.5 mph - N/A   Clear
1:35 AM 58.1 °F 56.3 °F 94% 30.11 in 10.0 mi Calm Calm - N/A   Clear
1:55 AM 59.0 °F 56.8 °F 93% 30.11 in 10.0 mi Calm Calm - N/A   Clear
2:15 AM 59.9 °F 58.1 °F 94% 30.10 in 5.0 mi Calm Calm - N/A   Clear
2:35 AM 59.5 °F 57.7 °F 94% 30.11 in 7.0 mi Calm Calm - N/A   Clear
2:55 AM 59.0 °F 57.2 °F 94% 30.11 in 7.0 mi Calm Calm - N/A   Clear
3:15 AM 58.3 °F 56.5 °F 94% 30.12 in 7.0 mi Calm Calm - N/A   Clear
3:35 AM 57.7 °F 55.9 °F 94% 30.12 in 10.0 mi Calm Calm - N/A   Clear
3:55 AM 57.7 °F 56.1 °F 94% 30.12 in 7.0 mi Calm Calm - N/A   Clear
4:15 AM 57.4 °F 55.8 °F 94% 30.12 in 7.0 mi Calm Calm - N/A   Clear
4:35 AM 56.7 °F 55.0 °F 94% 30.12 in 7.0 mi Calm Calm - N/A   Clear
4:55 AM 57.2 °F 55.4 °F 94% 30.12 in 7.0 mi Calm Calm - N/A   Clear
5:15 AM 56.5 °F 54.9 °F 94% 30.12 in 7.0 mi Calm Calm - N/A   Clear
5:35 AM 55.6 °F 54.0 °F 94% 30.12 in 3.0 mi Calm Calm - N/A   Clear
5:55 AM 54.0 °F 52.5 °F 95% 30.13 in 1.0 mi Calm Calm - N/A   Mist
6:15 AM 52.9 °F 51.4 °F 95% 30.13 in 2.5 mi Calm Calm - N/A   Clear
6:35 AM 53.2 °F 52.0 °F 95% 30.14 in 4.0 mi Calm Calm - N/A   Clear
6:55 AM 54.0 °F 52.7 °F 95% 30.14 in 7.0 mi Calm Calm - N/A   Clear
7:15 AM 54.7 °F 53.1 °F 94% 30.15 in 10.0 mi Calm Calm - N/A   Clear
7:35 AM 58.5 °F 57.0 °F 95% 30.16 in 7.0 mi Calm Calm - N/A   Clear
7:55 AM 62.1 °F 59.7 °F 92% 30.15 in 10.0 mi NNE 3.5 mph - N/A   Clear
8:15 AM 67.3 °F 62.6 °F 85% 30.16 in 10.0 mi Calm Calm - N/A   Clear
8:35 AM 69.3 °F 63.3 °F 81% 30.16 in 10.0 mi NE 4.6 mph - N/A   Clear
8:55 AM 70.3 °F 62.1 °F 75% 30.17 in 10.0 mi Calm Calm - N/A   Clear
9:15 AM 71.8 °F 61.7 °F 70% 30.17 in 10.0 mi ENE 4.6 mph - N/A   Clear
9:35 AM 72.7 °F 62.8 °F 71% 30.18 in 10.0 mi NNE 9.2 mph - N/A   Clear
9:55 AM 73.0 °F 62.8 °F 70% 30.18 in 10.0 mi ENE 8.1 mph - N/A   Clear
10:15 AM 73.6 °F 63.7 °F 71% 30.19 in 10.0 mi East 8.1 mph - N/A   Clear
10:35 AM 73.8 °F 62.2 °F 67% 30.19 in 10.0 mi East 8.1 mph - N/A   Clear
10:55 AM 73.9 °F 61.9 °F 66% 30.19 in 10.0 mi East 10.4 mph - N/A   Clear
11:15 AM 74.8 °F 61.9 °F 64% 30.19 in 10.0 mi ESE 8.1 mph 17.3 mph N/A   Clear
11:35 AM 75.2 °F 60.8 °F 61% 30.19 in 10.0 mi East 3.5 mph - N/A   Clear
11:55 AM 75.4 °F 61.7 °F 62% 30.19 in 10.0 mi East 6.9 mph - N/A   Clear
12:15 PM 75.7 °F 61.7 °F 62% 30.18 in 10.0 mi ESE 5.8 mph - N/A   Clear
12:35 PM 76.5 °F 60.8 °F 58% 30.18 in 10.0 mi Calm Calm - N/A   Clear
12:55 PM 77.0 °F 59.5 °F 55% 30.17 in 10.0 mi ENE 4.6 mph - N/A   Clear
1:15 PM 77.4 °F 60.1 °F 55% 30.17 in 10.0 mi Calm Calm - N/A   Clear
1:35 PM 78.4 °F 59.5 °F 52% 30.16 in 10.0 mi ENE 3.5 mph - N/A   Clear
1:55 PM 78.3 °F 58.3 °F 50% 30.16 in 10.0 mi North 3.5 mph - N/A   Clear
2:15 PM 78.4 °F 56.7 °F 47% 30.15 in 10.0 mi Calm Calm - N/A   Clear
2:35 PM 78.8 °F 59.4 °F 51% 30.15 in 10.0 mi East 3.5 mph - N/A   Clear
2:55 PM 79.7 °F 60.1 °F 51% 30.14 in 10.0 mi NE 3.5 mph - N/A   Clear
3:15 PM 79.2 °F 54.5 °F 42% 30.13 in 10.0 mi Calm Calm - N/A   Clear
3:35 PM 79.3 °F 56.1 °F 45% 30.12 in 10.0 mi Calm Calm - N/A   Clear
3:55 PM 79.0 °F 57.9 °F 48% 30.12 in 10.0 mi ESE 6.9 mph - N/A   Clear
4:15 PM 78.8 °F 60.3 °F 53% 30.12 in 10.0 mi East 8.1 mph - N/A   Clear
4:35 PM 78.3 °F 60.1 °F 53% 30.12 in 10.0 mi SE 9.2 mph - N/A   Clear
4:55 PM 77.9 °F 61.2 °F 56% 30.11 in 10.0 mi East 9.2 mph - N/A   Clear
5:15 PM 77.0 °F 61.5 °F 59% 30.11 in 10.0 mi East 8.1 mph - N/A   Clear
5:35 PM 76.1 °F 61.5 °F 60% 30.10 in 10.0 mi SE 8.1 mph - N/A   Clear
5:55 PM 75.9 °F 61.7 °F 61% 30.10 in 10.0 mi ESE 5.8 mph - N/A   Clear
6:15 PM 74.8 °F 61.0 °F 62% 30.10 in 10.0 mi ESE 5.8 mph - N/A   Clear
6:35 PM 73.9 °F 61.2 °F 64% 30.09 in 10.0 mi SE 4.6 mph - N/A   Clear
6:55 PM 72.9 °F 61.7 °F 68% 30.10 in 10.0 mi SE 4.6 mph - N/A   Clear
7:15 PM 71.2 °F 61.9 °F 72% 30.10 in 10.0 mi Calm Calm - N/A   Clear
7:35 PM 70.2 °F 61.7 °F 74% 30.11 in 10.0 mi Calm Calm - N/A   Clear
7:55 PM 68.2 °F 61.7 °F 80% 30.11 in 10.0 mi ESE 3.5 mph - N/A   Clear
8:15 PM 67.3 °F 61.7 °F 82% 30.11 in 10.0 mi Calm Calm - N/A   Clear
8:35 PM 66.2 °F 61.0 °F 83% 30.11 in 10.0 mi ESE 3.5 mph - N/A   Clear
8:55 PM 65.5 °F 61.0 °F 85% 30.12 in 10.0 mi Calm Calm - N/A   Clear
9:15 PM 65.7 °F 61.2 °F 85% 30.12 in 10.0 mi East 3.5 mph - N/A   Clear
9:35 PM 65.5 °F 61.7 °F 88% 30.13 in 10.0 mi ESE 4.6 mph - N/A   Clear
9:55 PM 65.5 °F 61.2 °F 86% 30.13 in 10.0 mi East 4.6 mph - N/A   Clear
10:15 PM 65.1 °F 61.2 °F 87% 30.13 in 10.0 mi East 4.6 mph - N/A   Clear
10:35 PM 65.8 °F 61.0 °F 84% 30.13 in 10.0 mi East 4.6 mph - N/A   Clear
10:55 PM 66.0 °F 60.6 °F 83% 30.14 in 10.0 mi East 4.6 mph - N/A   Clear
11:15 PM 67.1 °F 62.6 °F 85% 30.15 in 10.0 mi East 8.1 mph - N/A   Mostly Cloudy
11:35 PM 67.1 °F 62.1 °F 84% 30.15 in 10.0 mi East 6.9 mph - N/A   Overcast
11:55 PM 66.6 °F 60.8 °F 82% 30.15 in 10.0 mi East 5.8 mph - N/A   Overcast